Regional Weather Roundup
Issued by NWS

Home | Current Version | Previous Version | Graphics & Text | Print | Product List | Glossary On
Versions: 1 2 3 4 5 6 7 8 9 10 11 12 13 14 15 16 17 18 19 20 21 22 23 24 25 26 27 28 29 30 31 32 33 34 35 36 37 38 39 40 41 42 43 44 45 46 47 48 49 50
000
ASUS43 KOAX 241002
RWRNE

WEATHER ROUNDUP FOR NEBRASKA
NATIONAL WEATHER SERVICE OMAHA NE
500 AM CDT THU APR 24 2014

NOTES: SATELLITE DATA IS BEING USED TO AUGMENT CLOUD COVER ABOVE
       12000 FEET.
       "FAIR" INDICATES FEW OR NO CLOUDS BELOW 12,000 FEET WITH NO
       SIGNIFICANT WEATHER AND/OR OBSTRUCTIONS TO VISIBILITY.

  * THESE STATIONS DO NOT REPORT WEATHER SUCH AS RAIN...SNOW OR FOG.

NEZ001>004-019>022-054>056-241100-
NEBRASKA PANHANDLE

CITY           SKY/WX    TMP DP  RH WIND       PRES   REMARKS
SCOTTSBLUFF    PTCLDY    37  33  85 W10       29.93R WCI  30
ALLIANCE       PTCLDY    31  28  89 W8        29.88R WCI  23
CHADRON        PTCLDY    39  31  72 W10       29.88S WCI  32
KIMBALL        PTCLDY    36  13  38 W14       29.94R WCI  27
SIDNEY         CLOUDY    40  31  70 NW14      29.93R WCI  32
$$

NEZ057>060-069>072-079>082-241100-
SOUTHWEST NEBRASKA

CITY           SKY/WX    TMP DP  RH WIND       PRES   REMARKS
NORTH PLATTE   MOCLDY    51  35  54 NW12      29.80R
IMPERIAL       CLOUDY    49  35  58 NW12      29.86R
LEXINGTON      LGT RAIN  52  39  62 NW10      29.77R
MCCOOK         CLOUDY    54  35  48 N14       29.81R
OGALLALA       MOCLDY    46  34  64 NW8       29.86R
$$

NEZ005>010-023>029-035>040-094-241100-
NORTH CENTRAL NEBRASKA

CITY           SKY/WX    TMP DP  RH WIND       PRES   REMARKS
VALENTINE      MOCLDY    46  34  62 NW9       29.78S
AINSWORTH      MOCLDY    49  35  58 NW10      29.76S
BROKEN BOW     CLOUDY    50  35  56 N13       29.74R
O`NEILL        CLOUDY    54  34  48 NW14G21   29.70F
ORD            CLOUDY    50  42  74 N9        29.70F
THEDFORD       MOCLDY    49  36  59 NW10      29.80R
$$

NEZ041-046>049-061>064-073>077-083>087-241100-
SOUTH CENTRAL NEBRASKA

CITY           SKY/WX    TMP DP  RH WIND       PRES   REMARKS
GRAND ISLAND   CLOUDY    51  45  79 N13       29.71R
AURORA         LGT RAIN  51  51 100 N13       29.70S
HASTINGS       LGT RAIN  51  44  77 N14       29.71R
HEBRON         HVY RAIN  54  53  94 CALM      29.67R
HOLDREGE       CLOUDY    51  43  74 NW9       29.74R
KEARNEY *      CLOUDY    52  43  71 N14       29.73S
YORK           HVY RAIN  52  52 100 NW18G30   29.68R
$$

NEZ011>018-030>034-042>045-241100-
NORTHEAST NEBRASKA

CITY           SKY/WX    TMP DP  RH WIND       PRES   REMARKS
NORFOLK        LGT RAIN  52  47  83 NW13      29.66S
ALBION         CLOUDY    49  47  91 NW8       29.69S
BLAIR          LGT RAIN  48  45  89 CALM      29.63R
COLUMBUS *     CLOUDY    52  46  82 W8        29.68R
FREMONT        LGT RAIN  49  47  95 CALM      29.64F
TEKAMAH        LGT RAIN  49  46  90 N7        29.64F
$$

NEZ050>053-065>068-078-088>093-241100-
SOUTHEAST NEBRASKA

CITY           SKY/WX    TMP DP  RH WIND       PRES   REMARKS
LINCOLN        LGT RAIN  51  48  89 N5        29.65R FOG
OMAHA EPPLEY   CLOUDY    49  45  86 NW7       29.63F
BEATRICE       LGT RAIN  51  50  93 NW6       29.61F
FALLS CITY     CLOUDY    53  49  86 NW16      29.62R
NEBRASKA CITY  CLOUDY    52  50  95 E3        29.60F
PLATTSMOUTH    CLOUDY    50  47  88 NW5       29.62R
$$

NEZ044-045-051>053-067-241100-
OMAHA AREA

CITY           SKY/WX    TMP DP  RH WIND       PRES   REMARKS
OMAHA EPPLEY   CLOUDY    49  45  86 NW7       29.63F
BLAIR          LGT RAIN  48  45  89 CALM      29.63R
FREMONT        LGT RAIN  49  47  95 CALM      29.64F
MILLARD        LGT RAIN  49  46  89 NW5       29.64R
OFFUTT AFB     LGT RAIN  49  49  99 NW6       29.62R
PLATTSMOUTH    CLOUDY    50  47  88 NW5       29.62R
WAHOO          LGT RAIN  49  46  90 NW6       29.65R
$$



USA.gov is the U.S. government's official web portal to all federal, state and local government web resources and services.